�������l�o���
Date,Time,MP-1(��Sv/h),MP-2(��Sv/h),MP-3(��Sv/h),MP-4(��Sv/h),MP-5(��Sv/h),MP-6(��Sv/h),MP-7(��Sv/h),MP-8(��Sv/h),����,����(m/s),���J
2022/03/14,00:00,0.598,0.891,0.561,1.097,0.778,0.354,0.618,0.581,��쓌,2.8,��
2022/03/14,00:10,0.598,0.890,0.562,1.100,0.779,0.355,0.617,0.583,��쓌,2.5,��
2022/03/14,00:20,0.598,0.892,0.561,1.101,0.780,0.355,0.618,0.582,��쓌,3.1,��
2022/03/14,00:30,0.599,0.890,0.560,1.099,0.779,0.353,0.618,0.582,��쓌,2.6,��
2022/03/14,00:40,0.598,0.892,0.561,1.097,0.779,0.354,0.619,0.581,-,CALM,��
2022/03/14,00:50,0.599,0.892,0.561,1.099,0.780,0.355,0.617,0.583,-,CALM,��
2022/03/14,01:00,0.597,0.891,0.561,1.101,0.779,0.354,0.618,0.584,��쓌,4.2,��
2022/03/14,01:10,0.599,0.891,0.558,1.098,0.778,0.354,0.619,0.584,��쓌,4.3,��
2022/03/14,01:20,0.599,0.890,0.559,1.100,0.779,0.354,0.620,0.583,��쓌,4.1,��
2022/03/14,01:30,0.597,0.892,0.561,1.100,0.780,0.354,0.618,0.583,��쓌,3.6,��
2022/03/14,01:40,0.600,0.891,0.561,1.099,0.778,0.354,0.619,0.584,��쓌,3.4,��
2022/03/14,01:50,0.600,0.891,0.561,1.100,0.781,0.355,0.619,0.582,��쓌,3.6,��
2022/03/14,02:00,0.599,0.891,0.560,1.098,0.779,0.355,0.617,0.581,��쓌,4.0,��
2022/03/14,02:10,0.597,0.892,0.562,1.099,0.780,0.355,0.618,0.583,��쓌,4.8,��
2022/03/14,02:20,0.597,0.893,0.561,1.100,0.778,0.355,0.619,0.582,��쓌,4.3,��
2022/03/14,02:30,0.598,0.893,0.561,1.100,0.781,0.356,0.619,0.582,��,3.2,��
2022/03/14,02:40,0.598,0.894,0.561,1.099,0.781,0.355,0.617,0.584,��,1.5,��
2022/03/14,02:50,0.599,0.893,0.561,1.101,0.779,0.355,0.619,0.583,��,1.5,��
2022/03/14,03:00,0.599,0.891,0.562,1.099,0.778,0.354,0.618,0.583,��,1.5,��
2022/03/14,03:10,0.599,0.892,0.562,1.099,0.778,0.356,0.618,0.584,��쓌,1.2,��
2022/03/14,03:20,0.598,0.892,0.560,1.097,0.778,0.354,0.617,0.583,��,0.8,��
2022/03/14,03:30,0.599,0.892,0.559,1.098,0.779,0.354,0.618,0.582,�쓌,0.9,��
2022/03/14,03:40,0.600,0.890,0.561,1.098,0.779,0.355,0.618,0.582,�쓌,1.7,��
2022/03/14,03:50,0.597,0.891,0.561,1.098,0.779,0.355,0.617,0.583,���쓌,2.2,��
2022/03/14,04:00,0.597,0.891,0.562,1.100,0.779,0.355,0.619,0.583,�쓌,1.1,��
2022/03/14,04:10,0.601,0.891,0.560,1.098,0.781,0.354,0.619,0.582,�k��,0.6,��
2022/03/14,04:20,0.598,0.892,0.560,1.098,0.779,0.354,0.618,0.583,���쓌,0.9,��
2022/03/14,04:30,0.598,0.892,0.562,1.099,0.778,0.354,0.617,0.583,-,CALM,��
2022/03/14,04:40,0.600,0.892,0.561,1.099,0.778,0.354,0.618,0.583,-,CALM,��
2022/03/14,04:50,0.600,0.892,0.561,1.100,0.779,0.354,0.618,0.582,-,CALM,��
2022/03/14,05:00,0.599,0.890,0.561,1.098,0.779,0.355,0.618,0.583,���k��,0.8,��
2022/03/14,05:10,0.598,0.891,0.562,1.099,0.779,0.354,0.620,0.582,-,CALM,��
2022/03/14,05:20,0.599,0.891,0.562,1.101,0.778,0.356,0.619,0.583,�k��,0.6,��
2022/03/14,05:30,0.599,0.891,0.559,1.098,0.779,0.354,0.618,0.583,�k�k��,0.9,��
2022/03/14,05:40,0.597,0.892,0.560,1.101,0.781,0.354,0.618,0.582,�k�k��,1.2,��
2022/03/14,05:50,0.599,0.892,0.562,1.099,0.778,0.355,0.617,0.583,�k�k��,1.5,��
2022/03/14,06:00,0.598,0.890,0.562,1.100,0.778,0.354,0.619,0.584,�k�k��,1.4,��
2022/03/14,06:10,0.599,0.891,0.562,1.097,0.779,0.353,0.620,0.583,�k�k��,2.2,��
2022/03/14,06:20,0.599,0.894,0.560,1.098,0.778,0.354,0.618,0.583,�k,1.4,��
2022/03/14,06:30,0.599,0.890,0.563,1.099,0.778,0.355,0.618,0.583,�k�k��,2.3,��
2022/03/14,06:40,0.598,0.891,0.562,1.098,0.778,0.354,0.618,0.582,�k,1.2,�L
2022/03/14,06:50,0.599,0.892,0.561,1.101,0.779,0.355,0.618,0.584,�k�k��,1.2,��
2022/03/14,07:00,0.599,0.893,0.561,1.100,0.780,0.355,0.619,0.583,�k,1.7,��
2022/03/14,07:10,0.598,0.891,0.561,1.099,0.777,0.356,0.618,0.583,�k,1.7,�L
2022/03/14,07:20,0.600,0.892,0.563,1.102,0.778,0.354,0.618,0.582,�k,2.6,�L
2022/03/14,07:30,0.600,0.892,0.561,1.099,0.780,0.355,0.618,0.582,�k�k��,1.5,��
2022/03/14,07:40,0.598,0.891,0.564,1.099,0.780,0.354,0.617,0.581,�k�k��,1.7,��
2022/03/14,07:50,0.600,0.892,0.561,1.100,0.777,0.355,0.617,0.582,�k�k��,2.5,��
2022/03/14,08:00,0.598,0.890,0.561,1.099,0.779,0.354,0.617,0.583,�k��,3.5,��
2022/03/14,08:10,0.599,0.890,0.560,1.097,0.777,0.355,0.618,0.582,�k�k��,0.6,��
2022/03/14,08:20,0.599,0.890,0.560,1.101,0.777,0.353,0.617,0.583,���쐼,1.5,��
2022/03/14,08:30,0.598,0.891,0.560,1.100,0.777,0.354,0.617,0.582,��,1.7,��
2022/03/14,08:40,0.599,0.890,0.563,1.098,0.779,0.353,0.617,0.582,��,1.7,��
2022/03/14,08:50,0.601,0.891,0.563,1.098,0.778,0.353,0.617,0.582,���쐼,5.4,��
2022/03/14,09:00,0.598,0.890,0.564,1.097,0.780,0.353,0.616,0.583,�k�k��,4.4,��
2022/03/14,09:10,0.598,0.890,0.564,1.098,0.778,0.354,0.616,0.582,�k�k��,6.0,��
2022/03/14,09:20,0.599,0.886,0.564,1.098,0.778,0.355,0.616,0.582,�k,7.9,��
2022/03/14,09:30,0.598,0.889,0.561,1.098,0.777,0.352,0.616,0.582,�k,7.3,��
2022/03/14,09:40,0.599,0.886,0.561,1.099,0.778,0.355,0.617,0.582,�k,6.5,��
2022/03/14,09:50,0.598,0.887,0.563,1.102,0.780,0.353,0.617,0.581,�k�k��,7.0,��
2022/03/14,10:00,0.598,0.888,0.564,1.100,0.779,0.355,0.616,0.581,�k,5.7,��
2022/03/14,10:10,0.597,0.888,0.567,1.099,0.779,0.356,0.616,0.581,�k,4.9,��
2022/03/14,10:20,0.596,0.888,0.567,1.099,0.779,0.355,0.618,0.579,�k,4.1,��
2022/03/14,10:30,0.595,0.888,0.565,1.100,0.778,0.355,0.616,0.580,�k,3.6,��
2022/03/14,10:40,0.598,0.889,0.565,1.099,0.780,0.354,0.617,0.581,�k,3.0,��
2022/03/14,10:50,0.595,0.888,0.568,1.099,0.776,0.354,0.616,0.579,�k,4.7,��
2022/03/14,11:00,0.594,0.887,0.564,1.101,0.776,0.353,0.616,0.580,�k�k��,5.4,��
2022/03/14,11:10,0.593,0.889,0.566,1.099,0.773,0.354,0.617,0.579,�k��,5.5,��
2022/03/14,11:20,0.595,0.886,0.565,1.098,0.777,0.352,0.618,0.579,�k��,4.3,��
2022/03/14,11:30,0.597,0.888,0.566,1.100,0.775,0.352,0.615,0.581,�k��,5.1,��
2022/03/14,11:40,0.597,0.888,0.564,1.100,0.776,0.351,0.617,0.579,���k��,4.1,��
2022/03/14,11:50,0.597,0.890,0.564,1.097,0.776,0.354,0.616,0.580,���k��,3.9,��
2022/03/14,12:00,0.595,0.889,0.562,1.098,0.776,0.353,0.617,0.581,���k��,3.3,��
2022/03/14,12:10,0.598,0.889,0.564,1.099,0.778,0.353,0.617,0.581,��,4.1,��
2022/03/14,12:20,0.598,0.889,0.562,1.099,0.776,0.353,0.617,0.579,���k��,4.2,��
2022/03/14,12:30,0.596,0.889,0.564,1.098,0.777,0.351,0.617,0.582,��,4.2,��
2022/03/14,12:40,0.597,0.889,0.565,1.101,0.777,0.352,0.615,0.579,��,4.0,��
2022/03/14,12:50,0.598,0.886,0.564,1.100,0.777,0.352,0.616,0.581,���k��,4.9,��
2022/03/14,13:00,0.598,0.889,0.564,1.099,0.775,0.354,0.616,0.581,���k��,3.4,��
2022/03/14,13:10,0.597,0.889,0.565,1.099,0.779,0.352,0.617,0.580,��,3.5,��
2022/03/14,13:20,0.599,0.888,0.565,1.100,0.776,0.352,0.616,0.579,��,3.9,��
2022/03/14,13:30,0.599,0.888,0.565,1.099,0.778,0.352,0.616,0.579,���k��,3.8,��
2022/03/14,13:40,0.599,0.888,0.567,1.101,0.779,0.354,0.615,0.579,�k��,3.9,��
2022/03/14,13:50,0.599,0.888,0.565,1.099,0.779,0.351,0.616,0.580,�k��,3.0,��
2022/03/14,14:00,0.599,0.889,0.564,1.099,0.779,0.352,0.614,0.580,�k��,3.3,��
2022/03/14,14:10,0.597,0.890,0.565,1.100,0.779,0.352,0.615,0.581,�k��,4.1,��
2022/03/14,14:20,0.601,0.890,0.566,1.098,0.780,0.351,0.615,0.580,�k��,3.7,��
2022/03/14,14:30,0.599,0.888,0.565,1.099,0.779,0.354,0.615,0.582,�k��,3.1,��
2022/03/14,14:40,0.600,0.889,0.567,1.099,0.780,0.353,0.615,0.582,�k��,3.7,��
2022/03/14,14:50,0.599,0.892,0.565,1.098,0.779,0.352,0.617,0.581,�k�k��,3.6,��
2022/03/14,15:00,0.600,0.891,0.567,1.099,0.780,0.353,0.616,0.581,�k��,3.8,��
2022/03/14,15:10,0.598,0.893,0.565,1.100,0.779,0.352,0.615,0.582,�k��,4.3,��
2022/03/14,15:20,0.599,0.890,0.566,1.101,0.779,0.353,0.616,0.584,�k��,4.7,��
2022/03/14,15:30,0.600,0.891,0.567,1.098,0.779,0.353,0.616,0.583,�k��,5.4,��
2022/03/14,15:40,0.598,0.892,0.566,1.100,0.780,0.353,0.615,0.582,�k�k��,5.7,��
2022/03/14,15:50,0.598,0.892,0.565,1.100,0.778,0.352,0.615,0.583,�k��,5.7,��
2022/03/14,16:00,0.598,0.891,0.564,1.098,0.779,0.354,0.615,0.582,�k�k��,6.1,��
2022/03/14,16:10,0.597,0.892,0.563,1.098,0.781,0.353,0.616,0.581,�k�k��,6.9,��
2022/03/14,16:20,0.599,0.892,0.566,1.098,0.779,0.353,0.616,0.583,�k�k��,5.8,��
2022/03/14,16:30,0.597,0.891,0.564,1.099,0.781,0.354,0.615,0.582,�k�k��,6.9,��
2022/03/14,16:40,0.600,0.892,0.566,1.097,0.779,0.353,0.615,0.581,�k�k��,5.4,��
2022/03/14,16:50,0.597,0.890,0.565,1.099,0.779,0.352,0.617,0.582,�k�k��,5.4,��
2022/03/14,17:00,0.599,0.890,0.565,1.099,0.781,0.355,0.615,0.582,�k�k��,5.2,��
2022/03/14,17:10,0.597,0.893,0.563,1.099,0.780,0.354,0.616,0.582,�k��,5.5,��
2022/03/14,17:20,0.598,0.893,0.564,1.099,0.780,0.353,0.616,0.581,�k�k��,5.6,��
2022/03/14,17:30,0.597,0.890,0.564,1.097,0.779,0.353,0.617,0.583,�k�k��,5.0,��
2022/03/14,17:40,0.597,0.892,0.563,1.098,0.778,0.353,0.616,0.581,�k�k��,4.0,��
2022/03/14,17:50,0.597,0.889,0.564,1.099,0.779,0.352,0.618,0.582,�k�k��,4.2,��
2022/03/14,18:00,0.596,0.889,0.565,1.100,0.779,0.353,0.616,0.581,�k�k��,3.7,��
2022/03/14,18:10,0.597,0.889,0.564,1.099,0.778,0.353,0.618,0.581,�k�k��,4.5,��
2022/03/14,18:20,0.599,0.891,0.562,1.098,0.778,0.353,0.619,0.583,�k�k��,4.3,��
2022/03/14,18:30,0.597,0.892,0.565,1.096,0.778,0.351,0.619,0.580,�k,3.9,��
2022/03/14,18:40,0.597,0.890,0.565,1.098,0.778,0.353,0.617,0.582,�k�k��,2.9,��
2022/03/14,18:50,0.597,0.892,0.564,1.100,0.780,0.353,0.619,0.580,�k�k��,3.2,�L
2022/03/14,19:00,0.596,0.890,0.564,1.098,0.778,0.352,0.617,0.582,�k,3.4,�L
2022/03/14,19:10,0.597,0.890,0.564,1.100,0.777,0.352,0.617,0.581,�k,3.3,��
2022/03/14,19:20,0.598,0.891,0.565,1.100,0.778,0.353,0.620,0.580,�k,3.4,��
2022/03/14,19:30,0.598,0.890,0.565,1.099,0.779,0.354,0.619,0.579,�k,3.1,�L
2022/03/14,19:40,0.598,0.890,0.565,1.100,0.777,0.354,0.618,0.582,�k�k��,2.9,�L
2022/03/14,19:50,0.599,0.891,0.563,1.098,0.776,0.352,0.618,0.581,�k�k��,3.5,��
2022/03/14,20:00,0.597,0.891,0.563,1.099,0.779,0.353,0.617,0.582,�k�k��,3.1,��
2022/03/14,20:10,0.596,0.889,0.566,1.099,0.778,0.352,0.619,0.581,�k,2.5,��
2022/03/14,20:20,0.598,0.890,0.563,1.097,0.779,0.352,0.619,0.580,�k�k��,2.8,��
2022/03/14,20:30,0.595,0.891,0.565,1.099,0.778,0.352,0.618,0.582,�k��,2.6,�L
2022/03/14,20:40,0.597,0.890,0.564,1.098,0.780,0.352,0.618,0.581,�k�k��,2.6,�L
2022/03/14,20:50,0.596,0.893,0.564,1.099,0.778,0.353,0.619,0.580,�k�k��,3.0,�L
2022/03/14,21:00,0.596,0.890,0.564,1.098,0.778,0.354,0.617,0.581,�k��,3.2,��
2022/03/14,21:10,0.596,0.890,0.564,1.100,0.779,0.353,0.619,0.582,�k��,2.8,��
2022/03/14,21:20,0.597,0.893,0.563,1.098,0.777,0.353,0.619,0.582,�k�k��,2.3,�L
2022/03/14,21:30,0.597,0.892,0.564,1.096,0.777,0.353,0.618,0.581,�k,1.9,�L
2022/03/14,21:40,0.596,0.891,0.564,1.097,0.776,0.352,0.619,0.582,�k�k��,1.7,�L
2022/03/14,21:50,0.597,0.893,0.566,1.099,0.778,0.351,0.618,0.582,�k��,1.2,�L
2022/03/14,22:00,0.595,0.889,0.565,1.098,0.778,0.353,0.617,0.582,���k��,1.1,�L
2022/03/14,22:10,0.595,0.889,0.564,1.097,0.776,0.354,0.618,0.580,-,CALM,�L
2022/03/14,22:20,0.597,0.890,0.565,1.098,0.777,0.354,0.617,0.582,�k�k��,0.6,�L
2022/03/14,22:30,0.597,0.889,0.562,1.098,0.778,0.354,0.617,0.583,�k,1.2,�L
2022/03/14,22:40,0.597,0.889,0.565,1.097,0.776,0.355,0.616,0.580,�k,1.1,�L
2022/03/14,22:50,0.598,0.888,0.565,1.099,0.776,0.355,0.618,0.580,�k��,1.2,�L
2022/03/14,23:00,0.594,0.889,0.563,1.096,0.777,0.354,0.617,0.580,�k��,1.4,�L
2022/03/14,23:10,0.595,0.889,0.564,1.096,0.774,0.354,0.618,0.580,�k��,1.4,�L
2022/03/14,23:20,0.597,0.888,0.562,1.096,0.775,0.354,0.616,0.580,�k�k��,0.9,��
2022/03/14,23:30,0.595,0.887,0.563,1.096,0.775,0.353,0.615,0.580,�k�k��,1.2,��
2022/03/14,23:40,0.596,0.886,0.563,1.095,0.773,0.354,0.618,0.582,�k�k��,1.2,�L
2022/03/14,23:50,0.597,0.887,0.563,1.094,0.774,0.352,0.615,0.581,�k�k��,1.1,�L
